Flag for Indonesia Weather past 2 weeks in Manado, North Sulawesi, Indonesia

Now
88 °F

Passing clouds.


Feels Like: 93 °F
Forecast: 77 / 90 °F
Wind: 6 mph from South

Location: Menado / Dr. Sam Ratulangi

Current Time: May 25, 2015 at 9:50:24 AM

Latest Report: May 25, 2015 at 9:00 AM


Visibility: N/A

Pressure: 29.92 "Hg

Humidity: 55%

Dew point: 70 °F

Location of ManadoLocation

Historic Weather in Manado — Graph

°F

Manado temperature yesterday

Maximum temperature yesterday: 88 °F (at 11:00 AM)
Minimum temperature yesterday: 72 °F (at 6:00 AM)
Average temperature yesterday: 80 °F

Past Weeks' High & Low Weather Summary

 TemperatureHumidityPressure
High93 °F (May 11, 12:00 PM)100% (May 11, 4:30 AM)29.92 "Hg (May 11, 4:30 AM)
Low72 °F (May 11, 4:30 AM)44% (May 20, 10:30 AM)29.77 "Hg (May 10, 3:00 PM)
Average82 °F77%29.86 "Hg
* Reported May 10 8:00 AM — May 25 8:30 AM, Manado, Weather by CustomWeather, © 2015

Note: Actual official high and low records may vary slightly from our data, if they occured in-between our weather recording intervals... More about our weather records

Advertising

Manado weather history for previous 24 hours

 ConditionsComfort  
Time TempWeatherWind HumidityBarometerVisibility
8:30 AM
Mon, May 25
86 °FPassing clouds.3 mph59%29.92 "HgN/A
8:00 AM84 °FPassing clouds.2 mph66%29.92 "HgN/A
7:00 AM81 °FPassing clouds.2 mph79%29.92 "HgN/A
6:30 AM73 °FPassing clouds.3 mph94%29.92 "HgN/A
5:00 AM72 °FPassing clouds.No wind94%29.89 "HgN/A
4:30 AM72 °FPassing clouds.3 mph94%29.86 "Hg6 mi
4:00 AM72 °FPassing clouds.3 mph94%29.86 "Hg6 mi
2:30 AM72 °FPassing clouds.No wind100%29.86 "Hg6 mi
2:00 AM73 °FPassing clouds.2 mph94%29.89 "Hg6 mi
11:00 PM
Sun, May 24
75 °FPassing clouds.2 mph89%29.92 "Hg6 mi
10:30 PM77 °FPassing clouds.3 mph89%29.92 "Hg6 mi
10:00 PM77 °FPassing clouds.5 mph89%29.92 "Hg6 mi
9:30 PM77 °FPassing clouds.6 mph89%29.92 "Hg6 mi
9:00 PM77 °FPassing clouds.5 mph89%29.89 "Hg6 mi
8:30 PM77 °FPassing clouds.7 mph89%29.89 "Hg6 mi
8:00 PM77 °FPassing clouds.7 mph89%29.89 "Hg6 mi
7:30 PM77 °FPassing clouds.6 mph89%29.89 "Hg6 mi
7:00 PM77 °FPassing clouds.5 mph94%29.89 "Hg6 mi
6:30 PM79 °FPassing clouds.6 mph89%29.86 "Hg6 mi
6:00 PM79 °FPassing clouds.3 mph89%29.86 "Hg6 mi
5:30 PM77 °FScattered clouds.5 mph94%29.86 "Hg6 mi
5:00 PM77 °FLight rain. Scattered clouds.3 mph94%29.83 "Hg4 mi
4:30 PM77 °FScattered clouds.13 mph94%29.83 "Hg1 mi
4:00 PM84 °FThunderstorms. Scattered clouds.7 mph74%29.83 "Hg6 mi
3:30 PM84 °FScattered clouds.5 mph74%29.83 "Hg6 mi
3:00 PM86 °FScattered clouds.3 mph70%29.83 "Hg6 mi
2:30 PM84 °FScattered clouds.3 mph70%29.83 "Hg6 mi
2:00 PM86 °FScattered clouds.3 mph70%29.83 "Hg6 mi
1:30 PM86 °FScattered clouds.7 mph66%29.83 "Hg6 mi
1:00 PM86 °FScattered clouds.7 mph66%29.86 "Hg6 mi
12:30 PM88 °FScattered clouds.5 mph66%29.86 "HgN/A
12:00 PM86 °FScattered clouds.8 mph70%29.86 "HgN/A
11:30 AM88 °FScattered clouds.6 mph62%29.86 "HgN/A
11:00 AM88 °FScattered clouds.2 mph62%29.89 "HgN/A
10:30 AM86 °FPassing clouds.3 mph66%29.89 "HgN/A
10:00 AM86 °FPassing clouds.3 mph62%29.89 "HgN/A
9:00 AM82 °FPassing clouds.3 mph79%29.89 "HgN/A
Weather by CustomWeather, © 2015

See weather overviewHow to use our weather pages